This is the latest recevied weather packets stored in our database for station/object DL6MAA-11. If no packets are shown the sender has not sent any weather packets the latest 10 day(s).
| Time | Temp. | Humidity | Pressure | Rain* | Wind** | Luminosity | Snow |
|---|---|---|---|---|---|---|---|
| 1777986124 | 18.33° C | 62% | 1004.9 hPa | 0 mm | - | 162 W/m² | - |
| 1777985813 | 18.33° C | 61% | 1004.9 hPa | 0 mm | - | 178 W/m² | - |
| 1777985519 | 18.33° C | 61% | 1004.9 hPa | 0 mm | - | 209 W/m² | - |
| 1777985223 | 18.33° C | 59% | 1004.9 hPa | 0 mm | - | 236 W/m² | - |
| 1777984929 | 18.33° C | 58% | 1004.8 hPa | 0 mm | - | 241 W/m² | - |
| 1777984614 | 18.33° C | 58% | 1004.8 hPa | 0 mm | - | 207 W/m² | - |
| 1777984313 | 18.33° C | 56% | 1004.8 hPa | 0 mm | - | 144 W/m² | - |
| 1777984017 | 18.33° C | 54% | 1005 hPa | 0 mm | - | 116 W/m² | - |
| 1777983726 | 18.33° C | 58% | 1005 hPa | 0 mm | - | 121 W/m² | - |
| 1777983410 | 18.89° C | 58% | 1005 hPa | 0 mm | - | 127 W/m² | - |
| 1777983113 | 18.89° C | 56% | 1004.7 hPa | 0 mm | - | 132 W/m² | - |
| 1777982815 | 19.44° C | 55% | 1004.7 hPa | 0 mm | - | 111 W/m² | - |
| 1777982520 | 19.44° C | 54% | 1004.7 hPa | 0 mm | - | 137 W/m² | - |
| 1777982225 | 20° C | 55% | 1004.6 hPa | 0 mm | - | 178 W/m² | - |
| 1777981927 | 20° C | 55% | 1004.6 hPa | 0 mm | - | 207 W/m² | - |
| 1777981630 | 20.56° C | 54% | 1004.6 hPa | 0 mm | - | 225 W/m² | - |
| 1777981316 | 20° C | 53% | 1004.6 hPa | 0 mm | - | 264 W/m² | - |
| 1777981021 | 20° C | 50% | 1004.6 hPa | 0 mm | - | 250 W/m² | - |
| 1777980709 | 20.56° C | 51% | 1004.6 hPa | 0 mm | - | 251 W/m² | - |
| 1777980414 | 20.56° C | 50% | 1004.6 hPa | 0 mm | - | 250 W/m² | - |
| 1777980116 | 20.56° C | 51% | 1004.6 hPa | 0 mm | - | 308 W/m² | - |
| 1777979827 | 20.56° C | 52% | 1004.6 hPa | 0 mm | - | 264 W/m² | - |
| 1777979515 | 20.56° C | 51% | 1004.4 hPa | 0 mm | - | 287 W/m² | - |
| 1777979224 | 20.56° C | 52% | 1004.4 hPa | 0 mm | - | 357 W/m² | - |
| 1777978927 | 21.11° C | 53% | 1004.4 hPa | 0 mm | - | 341 W/m² | - |
* Rain since midnight (hover to see other rain measurements)
** Current wind speed in m/s (hover to see current wind gust speed)